Regional Weather Roundup
Issued by NWS Cleveland, OH

Home | Current Version | Previous Version | Text Only | Print | Product List | Glossary Off
Versions: 1 2 3 4 5 6 7 8 9 10 11 12 13 14 15 16 17 18 19 20 21 22 23 24 25 26 27 28 29 30 31 32 33 34 35 36 37 38 39 40 41 42 43 44 45 46 47 48 49 50

000
ASUS41 KCLE 231802
RWRCLE
OHIO REGIONAL WEATHER ROUNDUP
NATIONAL WEATHER SERVICE CLEVELAND, OH
200 PM EDT SAT AUG 23 2014

NOTE: "FAIR" INDICATES FEW OR NO CLOUDS BELOW 12,000 FEET WITH NO
SIGNIFICANT WEATHER AND/OR OBSTRUCTIONS TO VISIBILITY.

OHZ001>008-015>018-024>027-034-035-043-044-231900-
   NORTHWEST OHIO

CITY           SKY/WX    TMP DP  RH WIND       PRES   REMARKS
DEFIANCE       CLOUDY    82  71  69 NE7       30.04S
FINDLAY        PTSUNNY   82  71  69 NE7       30.03S
TOLEDO EXPRESS CLOUDY    80  67  64 VRB5      30.05R
TOLEDO EXEC    PTSUNNY   79  68  69 NE7       30.06S
LIMA           PTSUNNY   84  70  62 E7        30.04S
$$

OHZ009>014-019>023-028>033-038-089-231900-
   NORTHEAST OHIO

CITY           SKY/WX    TMP DP  RH WIND       PRES   REMARKS
CLE-HOPKINS    MOSUNNY   78  67  68 N13       30.07S
CLE-LAKEFRONT  SUNNY     75  66  73 NE14      30.05S
CUY CO. ARPT   MOSUNNY   79  70  73 NE14      30.05F
LORAIN-ELYRIA  MOSUNNY   81  66  60 NE9       30.06R
ASHTABULA      MOSUNNY   75  66  73 N8        30.06F
AKRON-CANTON   MOSUNNY   82  63  52 VRB5      30.04F
WOOSTER        PTSUNNY   80  66  62 NE6       30.06S
MANSFIELD      PTSUNNY   80  66  62 VRB3      30.06S
YOUNGSTOWN     PTSUNNY   76  64  66 NW8       30.05S
$$

OHZ042-051>053-060>062-070>072-077>081-231900-
  SOUTHWEST OHIO

CITY           SKY/WX    TMP DP  RH WIND       PRES   REMARKS
CINC-COVINGTON CLOUDY    87  69  54 CALM      30.01F HX  91
CINC-LUNKEN    PTSUNNY   88  74  63 NE3       30.00F HX  96
HAMILTON       CLOUDY    86  72  62 CALM      30.01S HX  92
DAYTON         PTSUNNY   85  72  65 NE5       30.03S HX  91
WRIGHT-PAT AFB PTSUNNY   85  72  65 VRB1      30.02S HX  91
DAYTON GENERAL PTSUNNY   85  71  63 CALM      30.01F HX  90
WILMINGTON     LGT RAIN  83  71  67 VRB5      30.02F
$$

OHZ036-037-039>041-045>050-054>059-063>069-073>076-082>088-231900-
  CENTRAL AND SOUTHEAST OHIO

CITY           SKY/WX    TMP DP  RH WIND       PRES   REMARKS
COLUMBUS       PTSUNNY   87  68  52 NE7       30.02S HX  90
OSU AIRPORT    PTSUNNY   83  67  58 VRB5      30.03S
BOLTON FIELD   CLOUDY    81  73  78 SE5       30.03S
RICKENBACK AFB CLOUDY    82  65  55 E6        30.02S
NEWARK         PTSUNNY   82  68  62 NE5       30.02F
MARION         MOSUNNY   83  68  60 VRB3      30.04S
LANCASTER      PTSUNNY   82  71  69 E5        30.04S
ZANESVILLE     MOSUNNY   82  67  60 E6        30.03F
NEW PHILLY     MOSUNNY   81  68  64 N7        30.04S
$$


USA.gov is the U.S. government's official web portal to all federal, state and local government web resources and services.